Regional Weather Roundup
Issued by NWS

Home | Current Version | Previous Version | Graphics & Text | Print | Product List | Glossary On
Versions: 1 2 3 4 5 6 7 8 9 10 11 12 13 14 15 16 17 18 19 20 21 22 23 24 25 26 27 28 29 30 31 32 33 34 35 36 37 38 39 40 41 42 43 44 45 46 47 48 49 50
667
ASUS44 KMEG 172300
RWRTN
TENNESSEE HOURLY STATE WEATHER ROUNDUP
NATIONAL WEATHER SERVICE MEMPHIS TN
600 PM CDT TUE OCT 17 2017

TNZ002-004-019-021-049-052-054-088>092-180000-
WEST TENNESSEE

CITY           SKY/WX    TMP DP  RH WIND       PRES   REMARKS
MEMPHIS INTL   PTCLDY    68  43  40 SE6       30.21F
NWS MEMPHIS      N/A     68 N/A N/A MISG        N/A
JACKSON        CLOUDY    64  49  57 CALM      30.23F
$$

TNZ008-025-027-028-033-062-065-066-180000-
NORTH MIDDLE TENNESSEE

CITY           SKY/WX    TMP DP  RH WIND       PRES   REMARKS
NASHVILLE      CLOUDY    65  40  39 N3        30.25S
CLARKSVILLE    PTCLDY    63  41  44 SE3       30.24F
SMYRNA         CLEAR     62  44  51 NW3       30.26R
CROSSVILLE     CLEAR     56  43  61 CALM      30.27S
$$

TNZ061-075-076-078-094-096-097-180000-
SOUTH MIDDLE TENNESSEE

CITY           SKY/WX    TMP DP  RH WIND       PRES   REMARKS
TULLAHOMA      CLEAR     61  43  51 NW3       30.26S
WINCHESTER     CLEAR     63  50  63 CALM        N/A
$$

TNZ017-018-042-046-047-180000-
NORTHEAST TENNESSEE

CITY           SKY/WX    TMP DP  RH WIND       PRES   REMARKS
TRI CITIES     PTCLDY    60  41  49 CALM      30.27S
$$

TNZ012-013-036-069-073-074-180000-
CENTRAL EAST TENNESSEE

CITY           SKY/WX    TMP DP  RH WIND       PRES   REMARKS
KNOXVILLE      PTCLDY    62  41  46 CALM      30.26R
OAK RIDGE      CLEAR     59  48  67 CALM      30.28S
$$

TNZ083-085-099-180000-
SOUTHEAST TENNESSEE

CITY           SKY/WX    TMP DP  RH WIND       PRES   REMARKS
CHATTANOOGA    PTCLDY    65  41  41 NE3       30.26S
$$

SKY/WX REPORTED AS FAIR MEANS FEW OR NO CLOUDS BELOW
12 THOUSAND FEET.





USA.gov is the U.S. government's official web portal to all federal, state and local government web resources and services.